Starlink 1569

operational
NORAD ID: 46039 Int'l Des: 2020-055 Owner: SPXS Country: US Constellation: starlink
LEOCIRCULARSTARLINK_TYPE

About Starlink 1569

Description loading...

Live Position

Loading 3D Globe...

Upcoming Passes

Altitude History

Altitude vs Time

uPlot chart will show altitude changes over time

Two-Line Element Set

1 46039U 20055N 25303.31301423 -.00001631 00000-0 -90681-4 0 9995
2 46039 53.0569 351.9042 0001605 87.8827 272.2346 15.06382511289230
Epoch: Oct 30, 2025 • Age: 17 hours

Current Status

Altitude 556.0 km
Velocity 7.58 km/s
Sub-Earth Point -27.28°S, 86.73°W
Launch Date Aug 7, 2020
Age 5.2 years
Type internet

Technical Details

Classification Payload
Mass 260.00 kg
Dry Mass 248.00 kg
Total Mass 260.00 kg
Length 0.20 m
Diameter 2.80 m
Span 9.00 m
Shape Box + pan
Manufacturer SPXS
Bus Type Starlink
Phase Status In Orbit
Owner/State SPXS/US

Large Constellations

Loading constellations...